GFSMA_prec_snow_210.txt.gz
Snowfall_Accumulation
0.0 0.0 0.0 0.0 0.0 0.0 0.0 0.0 0.0 0.0 0.0 0.0 0.0 0.0 0.0 0.0 0.0 0.0 0.0 0.0 0.0 0.0 0.0 0.0 0.0 0.0 0.0 0.0 0.0 0.0 0.0 0.0 0.0 0.0 0.0 0.0 0.0 0.0 0.0 0.0 0.0 0.0 0.0
0.0 0.0 0.0 0.0 0.0 0.0 0.0 0.0 0.0 0.0 0.0 0.0 0.0 0.0 0.0 0.0 0.0 0.0 0.0 0.0 0.0 0.0 0.0 0.0 0.0 0.0 0.0 0.0 0.0 0.0 0.0 0.0 0.0 0.0 0.0 0.0 0.0 0.0 0.0 0.0 0.0 0.0 0.0
0.0 0.0 0.0 0.0 0.0 0.0 0.0 0.0 0.0 0.0 0.0 0.0 0.0 0.0 0.0 0.0 0.0 0.0 0.0 0.0 0.0 0.0 0.0 0.0 0.0 0.0 0.0 0.0 0.0 0.0 0.0 0.0 0.0 0.0 0.0 0.0 0.0 0.0 0.0 0.0 0.0 0.0 0.0
0.0 0.0 0.0 0.0 0.0 0.0 0.0 0.0 0.0 0.0 0.0 0.0 0.0 0.0 0.0 0.0 0.0 0.0 0.0 0.0 0.0 0.0 0.0 0.0 0.0 0.0 0.0 0.0 0.0 0.0 0.0 0.0 0.0 0.0 0.0 0.0 0.0 0.0 0.0 0.0 0.0 0.0 0.0
0.0 0.0 0.0 0.0 0.0 0.0 0.0 0.0 0.0 0.0 0.0 0.0 0.0 0.0 0.0 0.0 0.0 0.0 0.0 0.0 0.0 0.0 0.0 0.0 0.0 0.0 0.0 0.0 0.0 0.0 0.0 0.0 0.0 0.0 0.0 0.0 0.0 0.0 0.0 0.0 0.0 0.0 0.0
0.0 0.0 0.0 0.0 0.0 0.0 0.0 0.0 0.0 0.0 0.0 0.0 0.0 0.0 0.0 0.0 0.0 0.0 0.0 0.0 0.0 0.0 0.0 0.0 0.0 0.0 0.0 0.0 0.0 0.0 0.0 0.0 0.0 0.0 0.0 0.0 0.0 0.0 0.0 0.0 0.0 0.0 0.0
0.0 0.0 0.0 0.0 0.0 0.0 0.0 0.0 0.0 0.0 0.0 0.0 0.0 0.0 0.0 0.0 0.0 0.0 0.0 0.0 0.0 0.0 0.0 0.0 0.0 0.0 0.0 0.0 0.0 0.0 0.0 0.0 0.0 0.0 0.0 0.0 0.0 0.0 0.0 0.0 0.0 0.0 0.0
0.0 0.0 0.0 0.0 0.0 0.0 0.0 0.0 0.0 0.0 0.0 0.0 0.0 0.0 0.0 0.0 0.0 0.0 0.0 0.0 0.0 0.0 0.0 0.0 0.0 0.0 0.0 0.0 0.0 0.0 0.0 0.0 0.0 0.0 0.0 0.0 0.0 0.0 0.0 0.0 0.0 0.0 0.0
0.0 0.0 0.0 0.0 0.0 0.0 0.0 0.0 0.0 0.0 0.2 0.0 0.0 0.3 0.4 0.0 0.0 0.0 0.0 0.0 0.0 0.0 0.0 0.0 0.0 0.0 0.0 0.0 0.0 0.0 0.0 0.0 0.0 0.0 0.0 0.0 0.0 0.0 0.0 0.0 0.0 0.0 0.0
0.0 0.0 0.0 0.0 0.0 0.0 0.0 0.0 0.0 0.1 0.1 0.2 0.1 0.0 0.2 0.5 0.7 0.1 0.0 0.0 0.0 0.0 0.0 0.0 0.0 0.0 0.0 0.0 0.0 0.0 0.0 0.0 0.0 0.0 0.0 0.0 0.0 0.0 0.0 0.0 0.0 0.0 0.0
0.0 0.0 0.0 0.0 0.0 0.0 0.0 0.1 0.1 0.0 0.1 0.3 0.3 0.2 0.1 0.0 0.0 0.6 0.0 0.0 0.0 0.0 0.0 0.0 0.0 0.0 0.0 0.0 0.0 0.0 0.0 0.0 0.0 0.0 0.0 0.0 0.0 0.0 0.0 0.0 0.0 0.0 0.0
0.0 0.0 0.0 0.0 0.0 0.0 0.1 0.0 0.2 0.2 0.2 0.1 0.3 0.2 0.5 0.8 0.4 1.0 0.7 0.0 0.1 0.0 0.0 0.0 0.0 0.0 0.0 0.0 0.0 0.0 0.0 0.0 0.0 0.0 0.0 0.0 0.0 0.0 0.0 0.0 0.0 0.0 0.0
0.1 0.0 0.0 0.1 0.0 0.1 0.1 0.2 0.1 0.2 0.3 0.4 0.4 0.4 0.2 0.4 0.3 0.4 0.8 0.3 0.2 0.0 0.0 0.0 0.0 0.0 0.0 0.0 0.0 0.0 0.0 0.1 0.0 0.0 0.0 0.0 0.0 0.0 0.0 0.0 0.0 0.0 0.0
0.5 0.4 0.3 0.1 0.1 0.4 0.1 0.2 0.3 0.3 0.4 0.7 0.4 0.4 0.5 0.4 0.2 0.3 0.8 1.2 1.0 0.0 0.0 0.1 0.0 0.0 0.0 0.0 0.0 0.0 0.0 0.0 0.0 0.0 0.0 0.0 0.0 0.0 0.0 0.0 0.0 0.0 0.0
0.8 0.6 0.4 0.3 0.2 0.3 0.3 0.2 0.3 0.5 0.3 0.8 0.9 0.9 0.9 0.7 0.5 0.2 0.3 1.2 4.1 3.4 1.5 0.1 0.3 0.1 0.0 0.0 0.0 0.0 0.3 0.0 0.2 0.2 0.4 0.0 0.0 0.0 0.0 0.0 0.0 0.0 0.0
1.6 1.4 0.8 0.8 0.6 0.8 0.4 0.5 0.6 0.9 0.7 0.7 0.9 0.8 0.7 0.9 0.7 1.3 0.9 0.4 1.4 3.5 2.4 0.4 0.5 0.5 0.2 0.0 0.2 0.4 0.6 2.6 2.6 1.6 1.1 1.3 0.1 0.0 0.1 0.0 0.0 0.0 0.0
1.9 1.7 1.7 1.7 2.0 1.8 1.9 1.5 1.3 1.4 1.0 0.8 0.7 1.2 1.1 0.9 1.1 1.3 1.7 1.3 0.9 1.7 2.3 2.8 1.2 0.8 0.7 0.8 0.7 0.1 0.4 1.0 4.2 4.0 1.6 0.5 0.4 0.1 0.0 0.1 0.1 0.1 0.5
2.3 2.3 2.3 1.6 1.6 1.7 1.9 2.0 2.1 1.9 1.8 1.6 1.3 1.1 1.2 1.1 1.3 1.9 2.0 2.0 1.6 2.0 2.0 3.8 2.4 1.9 1.6 2.9 3.5 1.6 0.9 0.5 0.9 3.2 3.1 2.8 0.8 0.8 0.2 0.8 0.8 0.1 0.2
2.8 2.0 2.3 2.5 2.0 1.8 1.8 1.8 2.0 1.8 1.7 1.6 1.8 1.8 2.1 1.3 0.9 1.9 3.0 3.4 2.3 1.4 2.3 2.9 3.6 3.0 3.8 3.5 3.7 3.1 0.6 0.5 0.0 1.4 2.2 3.1 3.8 2.8 2.0 1.2 0.8 0.0 0.3
0.9 1.2 1.8 3.0 3.0 2.0 1.6 2.0 1.5 1.4 1.6 2.1 2.2 2.0 2.6 2.3 2.5 1.9 2.1 3.4 3.4 3.1 2.9 3.1 3.2 4.9 4.4 8.6 2.8 4.7 7.8 2.9 1.7 0.3 0.3 0.6 0.6 0.5 1.3 2.4 3.8 1.4 1.1
1.3 0.5 0.0 0.3 0.4 1.1 1.9 1.5 1.7 1.3 1.0 1.7 1.8 1.2 1.5 2.5 2.6 3.0 2.7 2.7 2.5 2.9 3.0 5.9 6.8 9.1 9.2 10.5 10.7 8.3 5.9 6.0 5.0 3.2 2.0 0.4 0.4 0.4 0.4 0.2 1.5 3.1 3.9
1.2 1.6 2.5 2.0 1.6 1.9 0.8 0.8 1.1 1.7 4.0 4.0 1.4 1.3 1.2 0.9 1.2 1.5 2.0 1.8 1.4 1.9 3.1 4.7 5.3 6.5 8.9 7.6 7.2 5.8 7.7 8.8 9.6 7.7 5.8 5.1 0.8 1.8 0.6 0.2 1.0 0.9 1.7
5.2 4.1 5.3 3.3 5.4 6.0 4.4 2.3 1.1 2.5 2.7 2.1 0.6 0.8 1.0 0.5 0.1 0.2 0.0 0.0 0.1 0.3 0.7 1.0 3.0 4.2 5.2 6.0 5.1 5.4 4.7 3.6 3.2 3.5 3.8 5.4 3.2 2.2 1.3 0.7 0.8 0.8 0.6
11.1 11.0 10.9 11.6 11.2 14.5 13.0 16.7 17.2 8.8 8.4 8.7 7.7 6.4 3.1 1.3 1.8 0.4 0.7 0.5 0.2 0.2 0.2 0.2 0.4 0.5 3.5 2.1 0.3 0.3 5.8 5.7 8.5 6.3 4.9 6.6 4.5 4.5 3.0 2.1 2.8 1.2 0.5
20.6 18.9 16.3 15.1 14.3 10.7 12.0 7.8 8.4 12.1 19.0 18.7 8.9 9.0 8.4 11.5 10.6 8.0 3.1 1.3 1.3 1.2 1.6 5.0 0.7 3.2 4.0 4.5 4.7 9.9 12.4 11.5 9.2 8.7 5.8 4.6 4.0 7.4 9.4 8.7 8.0 6.2 4.5
18.0 18.0 17.3 17.5 16.1 15.7 14.0 13.7 10.4 8.9 9.8 9.6 11.1 12.8 9.9 8.1 9.5 7.4 2.5 6.9 6.3 5.5 8.9 8.9 10.7 10.1 10.0 9.7 5.6 6.8 5.1 10.3 10.2 12.1 11.4 10.8 9.6 10.3 10.5 7.1 5.9 4.9 3.8

GFSMA_prec_snow_216.txt.gz
Snowfall_Accumulation
0.0 0.0 0.0 0.0 0.0 0.0 0.0 0.0 0.0 0.0 0.0 0.0 0.0 0.0 0.0 0.0 0.0 0.0 0.0 0.0 0.0 0.0 0.0 0.0 0.0 0.0 0.0 0.0 0.0 0.0 0.0 0.0 0.0 0.0 0.0 0.0 0.0 0.0 0.0 0.0 0.0 0.0 0.0
0.0 0.0 0.0 0.0 0.0 0.0 0.0 0.0 0.0 0.0 0.0 0.0 0.0 0.0 0.0 0.0 0.0 0.0 0.0 0.0 0.0 0.0 0.0 0.0 0.0 0.0 0.0 0.0 0.0 0.0 0.0 0.0 0.0 0.0 0.0 0.0 0.0 0.0 0.0 0.0 0.0 0.0 0.0
0.0 0.0 0.0 0.0 0.0 0.0 0.0 0.0 0.0 0.0 0.0 0.0 0.0 0.0 0.0 0.0 0.0 0.0 0.0 0.0 0.0 0.0 0.0 0.0 0.0 0.0 0.0 0.0 0.0 0.0 0.0 0.0 0.0 0.0 0.0 0.0 0.0 0.0 0.0 0.0 0.0 0.0 0.0
0.0 0.0 0.0 0.0 0.0 0.0 0.0 0.0 0.0 0.0 0.0 0.0 0.0 0.0 0.0 0.0 0.0 0.0 0.0 0.0 0.0 0.0 0.0 0.0 0.0 0.0 0.0 0.0 0.0 0.0 0.0 0.0 0.0 0.0 0.0 0.0 0.0 0.0 0.0 0.0 0.0 0.0 0.0
0.0 0.0 0.0 0.0 0.0 0.0 0.0 0.0 0.0 0.0 0.0 0.0 0.0 0.0 0.0 0.0 0.0 0.0 0.0 0.0 0.0 0.0 0.0 0.0 0.0 0.0 0.0 0.0 0.0 0.0 0.0 0.0 0.0 0.0 0.0 0.0 0.0 0.0 0.0 0.0 0.0 0.0 0.0
0.0 0.0 0.0 0.0 0.0 0.0 0.0 0.0 0.0 0.0 0.0 0.0 0.0 0.0 0.0 0.0 0.0 0.0 0.0 0.0 0.0 0.0 0.0 0.0 0.0 0.0 0.0 0.0 0.0 0.0 0.0 0.0 0.0 0.0 0.0 0.0 0.0 0.0 0.0 0.0 0.0 0.0 0.0
0.0 0.0 0.0 0.0 0.0 0.0 0.0 0.0 0.0 0.0 0.0 0.0 0.0 0.0 0.0 0.0 0.0 0.0 0.0 0.0 0.0 0.0 0.0 0.0 0.0 0.0 0.0 0.0 0.0 0.0 0.0 0.0 0.0 0.0 0.0 0.0 0.0 0.0 0.0 0.0 0.0 0.0 0.0
0.0 0.0 0.0 0.0 0.0 0.0 0.0 0.0 0.0 0.0 0.0 0.0 0.0 0.0 0.0 0.0 0.0 0.0 0.0 0.0 0.0 0.0 0.0 0.0 0.0 0.0 0.0 0.0 0.0 0.0 0.0 0.0 0.0 0.0 0.0 0.0 0.0 0.0 0.0 0.0 0.0 0.0 0.0
0.0 0.0 0.0 0.0 0.0 0.0 0.0 0.0 0.0 0.0 0.2 0.0 0.0 0.3 0.4 0.0 0.0 0.0 0.0 0.0 0.0 0.0 0.0 0.0 0.0 0.0 0.0 0.0 0.0 0.0 0.0 0.0 0.0 0.0 0.0 0.0 0.0 0.0 0.0 0.0 0.0 0.0 0.0
0.0 0.0 0.0 0.0 0.0 0.0 0.0 0.0 0.0 0.1 0.1 0.2 0.1 0.0 0.2 0.5 0.7 0.1 0.0 0.0 0.0 0.0 0.0 0.0 0.0 0.0 0.0 0.0 0.0 0.0 0.0 0.0 0.0 0.0 0.0 0.0 0.0 0.0 0.0 0.0 0.0 0.0 0.0
0.0 0.0 0.0 0.0 0.0 0.0 0.0 0.1 0.1 0.0 0.1 0.3 0.3 0.2 0.1 0.0 0.0 0.6 0.0 0.0 0.0 0.0 0.0 0.0 0.0 0.0 0.0 0.0 0.0 0.0 0.0 0.0 0.0 0.0 0.0 0.0 0.0 0.0 0.0 0.0 0.0 0.0 0.0
0.0 0.0 0.0 0.0 0.0 0.0 0.1 0.0 0.2 0.2 0.2 0.1 0.3 0.2 0.5 0.8 0.4 1.0 0.7 0.0 0.1 0.0 0.0 0.0 0.0 0.0 0.0 0.0 0.0 0.0 0.0 0.0 0.0 0.0 0.0 0.0 0.0 0.0 0.0 0.0 0.0 0.0 0.0
0.1 0.0 0.0 0.1 0.0 0.1 0.1 0.2 0.1 0.2 0.3 0.4 0.4 0.4 0.2 0.4 0.3 0.4 0.8 0.3 0.2 0.0 0.0 0.0 0.0 0.0 0.0 0.0 0.0 0.0 0.0 0.1 0.0 0.0 0.0 0.0 0.0 0.0 0.0 0.0 0.0 0.0 0.0
0.5 0.4 0.3 0.1 0.1 0.4 0.1 0.2 0.3 0.3 0.4 0.7 0.4 0.4 0.5 0.4 0.2 0.3 0.8 1.2 1.0 0.0 0.0 0.1 0.0 0.0 0.0 0.0 0.0 0.0 0.0 0.0 0.0 0.0 0.0 0.0 0.0 0.0 0.0 0.0 0.0 0.0 0.0
0.8 0.6 0.4 0.3 0.2 0.3 0.3 0.2 0.3 0.5 0.3 0.8 0.9 0.9 0.9 0.7 0.5 0.2 0.3 1.2 4.1 3.4 1.5 0.1 0.3 0.1 0.0 0.0 0.0 0.0 0.3 0.0 0.2 0.2 0.4 0.0 0.0 0.0 0.0 0.0 0.0 0.0 0.0
1.6 1.4 0.8 0.8 0.6 0.8 0.4 0.5 0.6 0.9 0.7 0.7 0.9 0.8 0.7 0.9 0.7 1.3 0.9 0.4 1.4 3.5 2.4 0.4 0.5 0.5 0.2 0.0 0.2 0.4 0.6 2.6 2.6 1.6 1.1 1.3 0.1 0.0 0.1 0.0 0.0 0.0 0.0
1.9 1.7 1.7 1.7 2.0 1.8 1.9 1.5 1.3 1.4 1.0 0.8 0.7 1.2 1.1 0.9 1.1 1.3 1.7 1.3 0.9 1.7 2.3 2.8 1.2 0.8 0.7 0.8 0.7 0.1 0.4 1.0 4.2 4.0 1.6 0.5 0.4 0.1 0.0 0.1 0.1 0.1 0.5
2.3 2.3 2.3 1.6 1.6 1.7 1.9 2.0 2.1 1.9 1.8 1.6 1.3 1.1 1.2 1.1 1.3 1.9 2.0 2.0 1.6 2.0 2.0 3.8 2.4 1.9 1.6 2.9 3.5 1.6 0.9 0.5 0.9 3.2 3.1 2.8 0.8 0.8 0.2 0.8 0.8 0.1 0.2
2.8 2.0 2.3 2.5 2.0 1.8 1.8 1.8 2.0 1.8 1.7 1.6 1.8 1.8 2.1 1.3 0.9 1.9 3.0 3.4 2.3 1.4 2.3 2.9 3.6 3.0 3.8 3.5 3.7 3.1 0.6 0.5 0.0 1.4 2.2 3.1 3.8 2.8 2.0 1.2 0.8 0.0 0.3
0.9 1.2 1.8 3.0 3.0 2.0 1.6 2.0 1.5 1.4 1.6 2.1 2.2 2.0 2.6 2.3 2.5 1.9 2.1 3.4 3.4 3.1 2.9 3.1 3.2 4.9 4.4 8.6 2.8 4.7 7.8 2.9 1.7 0.3 0.3 0.6 0.6 0.5 1.3 2.4 3.8 1.4 1.1
1.3 0.5 0.0 0.3 0.4 1.1 1.9 1.5 1.7 1.3 1.0 1.7 1.8 1.2 1.5 2.5 2.6 3.0 2.7 2.7 2.5 2.9 3.0 6.0 6.8 9.1 9.2 10.5 10.7 8.3 5.9 6.0 5.0 3.2 2.0 0.4 0.4 0.4 0.4 0.2 1.5 3.1 3.9
1.2 1.6 2.5 2.0 1.6 1.9 0.8 0.8 1.1 1.7 4.0 4.0 1.4 1.3 1.2 0.9 1.2 1.5 2.0 1.8 1.4 2.6 3.8 5.1 5.4 6.6 8.9 7.6 7.2 5.8 7.7 8.8 9.6 7.7 5.8 5.1 0.8 1.8 0.6 0.2 1.0 0.9 1.7
5.2 4.1 5.3 3.3 5.4 6.0 4.4 2.3 1.1 2.5 2.7 2.1 0.6 0.8 1.0 0.5 0.1 0.2 0.0 0.0 0.1 0.3 1.0 1.2 3.2 4.4 5.2 6.0 5.1 5.4 4.7 3.6 3.2 3.5 3.8 8.2 5.5 4.5 3.2 0.7 0.8 0.8 0.6
11.1 11.0 10.9 11.6 11.2 14.5 13.0 16.7 17.2 8.8 8.4 8.7 7.7 6.4 3.1 1.3 1.8 0.5 0.7 0.5 0.2 0.2 0.2 0.2 0.4 0.5 3.5 2.1 0.3 0.3 5.8 5.7 8.5 8.2 4.9 11.0 9.8 9.7 5.3 3.9 3.9 1.8 1.0
20.6 18.9 16.3 15.1 14.3 10.7 12.0 7.8 8.4 12.1 19.0 18.7 8.9 9.0 8.4 11.5 10.7 8.0 3.1 1.3 1.3 1.2 1.6 5.0 0.7 3.2 4.0 4.5 4.7 9.9 14.1 14.0 11.9 12.4 9.5 8.1 8.5 12.7 15.3 15.0 13.2 9.4 6.3
18.0 18.0 17.3 17.5 16.1 15.7 14.0 13.7 10.4 8.9 9.8 9.6 11.1 12.8 9.9 8.1 9.5 7.4 2.5 7.0 6.3 5.8 9.0 8.9 10.7 10.1 10.0 9.7 5.6 6.8 5.1 10.5 11.7 15.7 15.1 13.7 13.1 13.7 16.3 12.9 10.1 7.9 5.8

GFSMA_prec_snow_222.txt.gz
Snowfall_Accumulation
0.0 0.0 0.0 0.0 0.0 0.0 0.0 0.0 0.0 0.0 0.0 0.0 0.0 0.0 0.0 0.0 0.0 0.0 0.0 0.0 0.0 0.0 0.0 0.0 0.0 0.0 0.0 0.0 0.0 0.0 0.0 0.0 0.0 0.0 0.0 0.0 0.0 0.0 0.0 0.0 0.0 0.0 0.0
0.0 0.0 0.0 0.0 0.0 0.0 0.0 0.0 0.0 0.0 0.0 0.0 0.0 0.0 0.0 0.0 0.0 0.0 0.0 0.0 0.0 0.0 0.0 0.0 0.0 0.0 0.0 0.0 0.0 0.0 0.0 0.0 0.0 0.0 0.0 0.0 0.0 0.0 0.0 0.0 0.0 0.0 0.0
0.0 0.0 0.0 0.0 0.0 0.0 0.0 0.0 0.0 0.0 0.0 0.0 0.0 0.0 0.0 0.0 0.0 0.0 0.0 0.0 0.0 0.0 0.0 0.0 0.0 0.0 0.0 0.0 0.0 0.0 0.0 0.0 0.0 0.0 0.0 0.0 0.0 0.0 0.0 0.0 0.0 0.0 0.0
0.0 0.0 0.0 0.0 0.0 0.0 0.0 0.0 0.0 0.0 0.0 0.0 0.0 0.0 0.0 0.0 0.0 0.0 0.0 0.0 0.0 0.0 0.0 0.0 0.0 0.0 0.0 0.0 0.0 0.0 0.0 0.0 0.0 0.0 0.0 0.0 0.0 0.0 0.0 0.0 0.0 0.0 0.0
0.0 0.0 0.0 0.0 0.0 0.0 0.0 0.0 0.0 0.0 0.0 0.0 0.0 0.0 0.0 0.0 0.0 0.0 0.0 0.0 0.0 0.0 0.0 0.0 0.0 0.0 0.0 0.0 0.0 0.0 0.0 0.0 0.0 0.0 0.0 0.0 0.0 0.0 0.0 0.0 0.0 0.0 0.0
0.0 0.0 0.0 0.0 0.0 0.0 0.0 0.0 0.0 0.0 0.0 0.0 0.0 0.0 0.0 0.0 0.0 0.0 0.0 0.0 0.0 0.0 0.0 0.0 0.0 0.0 0.0 0.0 0.0 0.0 0.0 0.0 0.0 0.0 0.0 0.0 0.0 0.0 0.0 0.0 0.0 0.0 0.0
0.0 0.0 0.0 0.0 0.0 0.0 0.0 0.0 0.0 0.0 0.0 0.0 0.0 0.0 0.0 0.0 0.0 0.0 0.0 0.0 0.0 0.0 0.0 0.0 0.0 0.0 0.0 0.0 0.0 0.0 0.0 0.0 0.0 0.0 0.0 0.0 0.0 0.0 0.0 0.0 0.0 0.0 0.0
0.0 0.0 0.0 0.0 0.0 0.0 0.0 0.0 0.0 0.0 0.0 0.0 0.0 0.0 0.0 0.0 0.0 0.0 0.0 0.0 0.0 0.0 0.0 0.0 0.0 0.0 0.0 0.0 0.0 0.0 0.0 0.0 0.0 0.0 0.0 0.0 0.0 0.0 0.0 0.0 0.0 0.0 0.0
0.0 0.0 0.0 0.0 0.0 0.0 0.0 0.0 0.0 0.0 0.2 0.0 0.0 0.3 0.4 0.0 0.0 0.0 0.0 0.0 0.0 0.0 0.0 0.0 0.0 0.0 0.0 0.0 0.0 0.0 0.0 0.0 0.0 0.0 0.0 0.0 0.0 0.0 0.0 0.0 0.0 0.0 0.0
0.0 0.0 0.0 0.0 0.0 0.0 0.0 0.0 0.0 0.1 0.1 0.2 0.1 0.0 0.2 0.5 0.7 0.1 0.0 0.0 0.0 0.0 0.0 0.0 0.0 0.0 0.0 0.0 0.0 0.0 0.0 0.0 0.0 0.0 0.0 0.0 0.0 0.0 0.0 0.0 0.0 0.0 0.0
0.0 0.0 0.0 0.0 0.0 0.0 0.0 0.1 0.1 0.0 0.1 0.3 0.3 0.2 0.1 0.0 0.0 0.6 0.0 0.0 0.0 0.0 0.0 0.0 0.0 0.0 0.0 0.0 0.0 0.0 0.0 0.0 0.0 0.0 0.0 0.0 0.0 0.0 0.0 0.0 0.0 0.0 0.0
0.0 0.0 0.0 0.0 0.0 0.0 0.1 0.0 0.2 0.2 0.2 0.1 0.3 0.2 0.5 0.8 0.4 1.0 0.7 0.0 0.1 0.0 0.0 0.0 0.0 0.0 0.0 0.0 0.0 0.0 0.0 0.0 0.0 0.0 0.0 0.0 0.0 0.0 0.0 0.0 0.0 0.0 0.0
0.1 0.0 0.0 0.1 0.0 0.1 0.1 0.2 0.1 0.2 0.3 0.4 0.4 0.4 0.2 0.4 0.3 0.4 0.8 0.3 0.2 0.0 0.0 0.0 0.0 0.0 0.0 0.0 0.0 0.0 0.0 0.1 0.0 0.0 0.0 0.0 0.0 0.0 0.0 0.0 0.0 0.0 0.0
0.5 0.4 0.3 0.1 0.1 0.4 0.1 0.2 0.3 0.3 0.4 0.7 0.4 0.4 0.5 0.4 0.2 0.3 0.8 1.2 1.0 0.0 0.0 0.1 0.0 0.0 0.0 0.0 0.0 0.0 0.0 0.0 0.0 0.0 0.0 0.0 0.0 0.0 0.0 0.0 0.0 0.0 0.0
0.8 0.6 0.4 0.3 0.2 0.3 0.3 0.2 0.3 0.5 0.3 0.8 0.9 0.9 0.9 0.7 0.5 0.2 0.3 1.2 4.1 3.4 1.5 0.1 0.3 0.1 0.0 0.0 0.0 0.0 0.3 0.0 0.2 0.2 0.4 0.0 0.0 0.0 0.0 0.0 0.0 0.0 0.0
1.6 1.4 0.8 0.8 0.6 0.8 0.4 0.5 0.6 0.9 0.7 0.7 0.9 0.8 0.7 0.9 0.7 1.3 0.9 0.4 1.4 3.5 2.4 0.4 0.5 0.5 0.2 0.0 0.2 0.4 0.6 2.6 2.6 1.6 1.1 1.3 0.1 0.0 0.1 0.0 0.0 0.0 0.0
1.9 1.7 1.7 1.7 2.0 1.8 1.9 1.5 1.3 1.4 1.0 0.8 0.7 1.2 1.1 0.9 1.1 1.3 1.7 1.3 0.9 1.7 2.3 2.8 1.2 0.8 0.7 0.8 0.7 0.1 0.4 1.0 4.2 4.0 1.6 0.5 0.4 0.1 0.0 0.1 0.1 0.1 0.5
2.3 2.3 2.3 1.6 1.6 1.7 1.9 2.0 2.1 1.9 1.8 1.6 1.3 1.1 1.2 1.1 1.3 1.9 2.0 2.0 1.6 2.0 2.0 3.8 2.4 1.9 1.6 2.9 3.5 1.6 0.9 0.5 0.9 3.2 3.1 2.8 0.8 0.8 0.2 0.8 0.8 0.1 0.2
2.8 2.0 2.3 2.5 2.0 1.8 1.8 1.8 2.0 1.8 1.7 1.6 1.8 1.8 2.1 1.3 0.9 1.9 3.0 3.4 2.3 1.4 2.3 2.9 3.6 3.0 3.8 3.5 3.7 3.1 0.6 0.5 0.0 1.4 2.2 3.1 3.8 2.8 2.0 1.2 0.8 0.0 0.3
0.9 1.2 1.8 3.0 3.0 2.0 1.6 2.0 1.5 1.4 1.6 2.1 2.2 2.0 2.6 2.3 2.5 1.9 2.1 3.4 3.4 3.1 2.9 3.1 3.2 4.9 4.4 8.6 2.8 4.7 7.8 2.9 1.7 0.3 0.3 0.6 0.6 0.5 1.3 2.4 3.8 1.4 1.1
1.3 0.5 0.0 0.3 0.4 1.1 1.9 1.5 1.7 1.3 1.0 1.7 1.8 1.2 1.5 2.5 2.6 3.0 2.7 2.7 2.5 2.9 3.0 6.0 6.8 9.1 9.2 10.5 10.7 8.3 5.9 6.0 5.0 3.2 2.0 0.4 0.4 0.4 0.4 0.2 1.5 3.1 3.9
1.2 1.6 2.5 2.0 1.6 1.9 0.8 0.8 1.1 1.7 4.0 4.0 1.4 1.3 1.2 0.9 1.2 1.5 2.0 1.8 1.4 2.7 3.9 5.1 5.5 6.8 8.9 7.6 7.3 6.0 7.7 8.8 9.6 7.7 5.8 5.1 0.8 1.8 0.6 0.2 1.0 0.9 1.7
5.2 4.1 5.3 3.3 5.4 6.0 4.4 2.3 1.1 2.5 2.7 2.1 0.6 0.8 1.0 0.5 0.1 0.2 0.0 0.0 0.1 0.3 1.0 1.8 3.5 4.4 5.3 6.0 5.5 5.6 4.7 3.6 3.2 3.5 3.8 8.2 5.5 4.5 3.2 0.7 0.8 0.8 0.6
11.1 11.0 10.9 11.6 11.2 14.5 13.0 16.7 17.2 8.8 8.4 8.7 7.7 6.4 3.1 1.3 1.8 0.5 0.7 0.5 0.2 0.2 0.2 0.5 0.5 0.5 3.5 2.1 0.3 0.3 5.8 5.9 9.0 8.2 5.2 12.1 11.6 11.8 5.3 3.9 3.9 1.8 1.0
20.6 18.9 16.3 15.1 14.3 10.7 12.0 7.8 8.4 12.1 19.0 18.7 8.9 9.0 8.4 11.5 10.7 8.0 3.1 1.3 1.3 1.2 1.6 5.0 0.7 3.2 4.0 4.5 4.7 9.9 14.2 14.2 12.4 13.7 10.5 9.0 10.1 15.2 18.7 20.6 13.2 9.4 6.3
18.0 18.0 17.3 17.5 16.1 15.7 14.0 13.7 10.4 8.9 9.8 9.6 11.1 12.8 9.9 8.1 9.5 7.4 2.5 7.0 6.3 5.8 9.0 8.9 10.7 10.1 10.0 9.7 5.6 6.8 5.1 10.6 12.0 16.2 15.7 14.7 14.4 14.6 19.2 18.1 17.1 12.2 8.5

GFSMA_prec_snow_225.txt.gz
Snowfall_Accumulation
0.0 0.0 0.0 0.0 0.0 0.0 0.0 0.0 0.0 0.0 0.0 0.0 0.0 0.0 0.0 0.0 0.0 0.0 0.0 0.0 0.0 0.0 0.0 0.0 0.0 0.0 0.0 0.0 0.0 0.0 0.0 0.0 0.0 0.0 0.0 0.0 0.0 0.0 0.0 0.0 0.0 0.0 0.0
0.0 0.0 0.0 0.0 0.0 0.0 0.0 0.0 0.0 0.0 0.0 0.0 0.0 0.0 0.0 0.0 0.0 0.0 0.0 0.0 0.0 0.0 0.0 0.0 0.0 0.0 0.0 0.0 0.0 0.0 0.0 0.0 0.0 0.0 0.0 0.0 0.0 0.0 0.0 0.0 0.0 0.0 0.0
0.0 0.0 0.0 0.0 0.0 0.0 0.0 0.0 0.0 0.0 0.0 0.0 0.0 0.0 0.0 0.0 0.0 0.0 0.0 0.0 0.0 0.0 0.0 0.0 0.0 0.0 0.0 0.0 0.0 0.0 0.0 0.0 0.0 0.0 0.0 0.0 0.0 0.0 0.0 0.0 0.0 0.0 0.0
0.0 0.0 0.0 0.0 0.0 0.0 0.0 0.0 0.0 0.0 0.0 0.0 0.0 0.0 0.0 0.0 0.0 0.0 0.0 0.0 0.0 0.0 0.0 0.0 0.0 0.0 0.0 0.0 0.0 0.0 0.0 0.0 0.0 0.0 0.0 0.0 0.0 0.0 0.0 0.0 0.0 0.0 0.0
0.0 0.0 0.0 0.0 0.0 0.0 0.0 0.0 0.0 0.0 0.0 0.0 0.0 0.0 0.0 0.0 0.0 0.0 0.0 0.0 0.0 0.0 0.0 0.0 0.0 0.0 0.0 0.0 0.0 0.0 0.0 0.0 0.0 0.0 0.0 0.0 0.0 0.0 0.0 0.0 0.0 0.0 0.0
0.0 0.0 0.0 0.0 0.0 0.0 0.0 0.0 0.0 0.0 0.0 0.0 0.0 0.0 0.0 0.0 0.0 0.0 0.0 0.0 0.0 0.0 0.0 0.0 0.0 0.0 0.0 0.0 0.0 0.0 0.0 0.0 0.0 0.0 0.0 0.0 0.0 0.0 0.0 0.0 0.0 0.0 0.0
0.0 0.0 0.0 0.0 0.0 0.0 0.0 0.0 0.0 0.0 0.0 0.0 0.0 0.0 0.0 0.0 0.0 0.0 0.0 0.0 0.0 0.0 0.0 0.0 0.0 0.0 0.0 0.0 0.0 0.0 0.0 0.0 0.0 0.0 0.0 0.0 0.0 0.0 0.0 0.0 0.0 0.0 0.0
0.0 0.0 0.0 0.0 0.0 0.0 0.0 0.0 0.0 0.0 0.0 0.0 0.0 0.0 0.0 0.0 0.0 0.0 0.0 0.0 0.0 0.0 0.0 0.0 0.0 0.0 0.0 0.0 0.0 0.0 0.0 0.0 0.0 0.0 0.0 0.0 0.0 0.0 0.0 0.0 0.0 0.0 0.0
0.0 0.0 0.0 0.0 0.0 0.0 0.0 0.0 0.0 0.0 0.2 0.0 0.0 0.3 0.4 0.0 0.0 0.0 0.0 0.0 0.0 0.0 0.0 0.0 0.0 0.0 0.0 0.0 0.0 0.0 0.0 0.0 0.0 0.0 0.0 0.0 0.0 0.0 0.0 0.0 0.0 0.0 0.0
0.0 0.0 0.0 0.0 0.0 0.0 0.0 0.0 0.0 0.1 0.1 0.2 0.1 0.0 0.2 0.5 0.7 0.1 0.0 0.0 0.0 0.0 0.0 0.0 0.0 0.0 0.0 0.0 0.0 0.0 0.0 0.0 0.0 0.0 0.0 0.0 0.0 0.0 0.0 0.0 0.0 0.0 0.0
0.0 0.0 0.0 0.0 0.0 0.0 0.0 0.1 0.1 0.0 0.1 0.3 0.3 0.2 0.1 0.0 0.0 0.6 0.0 0.0 0.0 0.0 0.0 0.0 0.0 0.0 0.0 0.0 0.0 0.0 0.0 0.0 0.0 0.0 0.0 0.0 0.0 0.0 0.0 0.0 0.0 0.0 0.0
0.0 0.0 0.0 0.0 0.0 0.0 0.1 0.0 0.2 0.2 0.2 0.1 0.3 0.2 0.5 0.8 0.4 1.0 0.7 0.0 0.1 0.0 0.0 0.0 0.0 0.0 0.0 0.0 0.0 0.0 0.0 0.0 0.0 0.0 0.0 0.0 0.0 0.0 0.0 0.0 0.0 0.0 0.0
0.1 0.0 0.0 0.1 0.0 0.1 0.1 0.2 0.1 0.2 0.3 0.4 0.4 0.4 0.2 0.4 0.3 0.4 0.8 0.3 0.2 0.0 0.0 0.0 0.0 0.0 0.0 0.0 0.0 0.0 0.0 0.1 0.0 0.0 0.0 0.0 0.0 0.0 0.0 0.0 0.0 0.0 0.0
0.5 0.4 0.3 0.1 0.1 0.4 0.1 0.2 0.3 0.3 0.4 0.7 0.4 0.4 0.5 0.4 0.2 0.3 0.8 1.2 1.0 0.0 0.0 0.1 0.0 0.0 0.0 0.0 0.0 0.0 0.0 0.0 0.0 0.0 0.0 0.0 0.0 0.0 0.0 0.0 0.0 0.0 0.0
0.8 0.6 0.4 0.3 0.2 0.3 0.3 0.2 0.3 0.5 0.3 0.8 0.9 0.9 0.9 0.7 0.5 0.2 0.3 1.2 4.1 3.4 1.5 0.1 0.3 0.1 0.0 0.0 0.0 0.0 0.3 0.0 0.2 0.2 0.4 0.0 0.0 0.0 0.0 0.0 0.0 0.0 0.0
1.6 1.4 0.8 0.8 0.6 0.8 0.4 0.5 0.6 0.9 0.7 0.7 0.9 0.8 0.7 0.9 0.7 1.3 0.9 0.4 1.4 3.5 2.4 0.4 0.5 0.5 0.2 0.0 0.2 0.4 0.6 2.6 2.6 1.6 1.1 1.3 0.1 0.0 0.1 0.0 0.0 0.0 0.0
1.9 1.7 1.7 1.7 2.0 1.8 1.9 1.5 1.3 1.4 1.0 0.8 0.7 1.2 1.1 0.9 1.1 1.3 1.7 1.3 0.9 1.7 2.3 2.8 1.2 0.8 0.7 0.8 0.7 0.1 0.4 1.0 4.2 4.0 1.6 0.5 0.4 0.1 0.0 0.1 0.1 0.1 0.5
2.3 2.3 2.3 1.6 1.6 1.7 1.9 2.0 2.1 1.9 1.8 1.6 1.3 1.1 1.2 1.1 1.3 1.9 2.0 2.0 1.6 2.0 2.0 3.8 2.4 1.9 1.6 2.9 3.5 1.6 0.9 0.5 0.9 3.2 3.1 2.8 0.8 0.8 0.2 0.8 0.8 0.1 0.2
2.8 2.0 2.3 2.5 2.0 1.8 1.8 1.8 2.0 1.8 1.7 1.6 1.8 1.8 2.1 1.3 0.9 1.9 3.0 3.4 2.3 1.4 2.3 2.9 3.6 3.0 3.8 3.5 3.7 3.1 0.6 0.5 0.0 1.4 2.2 3.1 3.8 2.8 2.0 1.2 0.8 0.0 0.3
0.9 1.2 1.8 3.0 3.0 2.0 1.6 2.0 1.5 1.4 1.6 2.1 2.2 2.0 2.6 2.3 2.5 1.9 2.1 3.4 3.4 3.1 2.9 3.1 3.2 4.9 4.4 8.6 2.8 4.7 7.8 2.9 1.7 0.3 0.3 0.6 0.6 0.5 1.3 2.4 3.8 1.4 1.1
1.3 0.5 0.0 0.3 0.4 1.1 1.9 1.5 1.7 1.3 1.0 1.7 1.8 1.2 1.5 2.5 2.6 3.0 2.7 2.7 2.5 2.9 3.0 6.0 6.8 9.1 9.2 10.5 10.7 8.3 5.9 6.0 5.0 3.2 2.0 0.4 0.4 0.4 0.4 0.2 1.5 3.1 3.9
1.2 1.6 2.5 2.0 1.6 1.9 0.8 0.8 1.1 1.7 4.0 4.0 1.4 1.3 1.2 0.9 1.2 1.5 2.0 1.8 1.4 2.7 3.9 5.1 5.5 6.8 8.9 7.6 7.3 6.0 7.8 8.8 9.7 7.7 5.8 5.1 0.8 1.8 0.6 0.2 1.0 0.9 1.7
5.2 4.1 5.3 3.3 5.4 6.0 4.4 2.3 1.1 2.5 2.7 2.1 0.6 0.8 1.0 0.5 0.1 0.2 0.0 0.0 0.1 0.3 1.0 1.8 3.5 4.4 5.3 6.0 5.5 5.6 4.7 3.6 3.3 3.5 3.8 8.2 5.5 4.5 3.2 0.7 0.8 0.8 0.6
11.1 11.0 10.9 11.6 11.2 14.5 13.0 16.7 17.2 8.8 8.4 8.7 7.7 6.4 3.1 1.3 1.8 0.5 0.7 0.5 0.2 0.2 0.2 0.5 0.5 0.5 3.5 2.1 0.3 0.3 5.8 5.9 9.0 8.2 5.3 12.1 11.6 11.9 5.3 3.9 3.9 1.8 1.0
20.6 18.9 16.3 15.1 14.3 10.7 12.0 7.8 8.4 12.1 19.0 18.7 8.9 9.0 8.4 11.5 10.7 8.0 3.1 1.3 1.3 1.2 1.6 5.0 0.7 3.2 4.0 4.5 4.7 9.9 14.2 14.3 12.4 13.7 10.5 9.0 10.2 15.4 18.8 20.6 13.2 9.4 6.3
18.0 18.0 17.3 17.5 16.1 15.7 14.0 13.7 10.4 8.9 9.8 9.6 11.1 12.8 9.9 8.1 9.5 7.4 2.5 7.0 6.3 5.8 9.0 8.9 10.7 10.1 10.0 9.7 5.6 6.8 5.1 10.7 12.1 16.3 15.7 14.7 14.4 14.8 19.2 18.6 18.1 14.2 8.5